JAL490 RJOK-RJTT

Flight info

Callsign JAL490
Flight time 0h 59m
Altitude 41000
Route DCT MUROT DCT MIYAT DCT MERID DCT KEC Y43 MENUR Y21 AKSEL AKSEL1B
Aircraft A359/H-SDE2E3GHIJ3J4J5LM1ORWXY/LB1D1

Departure

Time 2026-04-20 21:24
Airport Kochi Ryoma Airport (RJOK)

Arrival

Time 2026-04-20 22:23
Airport Tokyo Haneda International Airport (RJTT)
Time Latitude Longitude Altitude Speed Heading
2026-04-20 21:08 33.54667 133.67397 43 ft 0 kts 39°
2026-04-20 21:15 33.54663 133.67393 42 ft 2 kts 39°
2026-04-20 21:15 33.54649 133.67378 42 ft 3 kts 43°
2026-04-20 21:16 33.54634 133.67363 42 ft 3 kts 39°
2026-04-20 21:16 33.54620 133.67347 43 ft 3 kts 51°
2026-04-20 21:16 33.54608 133.67329 43 ft 3 kts 64°
2026-04-20 21:16 33.54601 133.67307 43 ft 3 kts 79°
2026-04-20 21:17 33.54599 133.67285 43 ft 3 kts 93°
2026-04-20 21:17 33.54601 133.67262 43 ft 3 kts 107°
2026-04-20 21:17 33.54608 133.67240 43 ft 3 kts 121°
2026-04-20 21:17 33.54615 133.67226 43 ft 1 kts 129°
2026-04-20 21:20 33.54597 133.67253 42 ft 9 kts 129°
2026-04-20 21:20 33.54550 133.67323 42 ft 13 kts 129°
2026-04-20 21:21 33.54487 133.67413 41 ft 14 kts 131°
2026-04-20 21:21 33.54421 133.67503 40 ft 16 kts 131°
2026-04-20 21:21 33.54347 133.67607 39 ft 17 kts 130°
2026-04-20 21:21 33.54264 133.67722 38 ft 19 kts 131°
2026-04-20 21:22 33.54170 133.67852 34 ft 23 kts 130°
2026-04-20 21:22 33.54075 133.67987 34 ft 16 kts 130°
2026-04-20 21:22 33.54000 133.68055 33 ft 13 kts 173°
2026-04-20 21:22 33.53929 133.68006 32 ft 9 kts 222°
2026-04-20 21:23 33.53891 133.67956 32 ft 4 kts 251°
2026-04-20 21:23 33.53899 133.67927 32 ft 4 kts 305°
2026-04-20 21:23 33.53904 133.67920 32 ft 0 kts 310°
2026-04-20 21:23 33.53919 133.67899 32 ft 16 kts 310°
2026-04-20 21:24 33.54191 133.67519 38 ft 102 kts 311°
2026-04-20 21:24 33.54821 133.66644 97 ft 168 kts 311°
2026-04-20 21:24 33.55577 133.65587 964 ft 168 kts 311°
2026-04-20 21:24 33.56397 133.64601 1997 ft 166 kts 330°
2026-04-20 21:25 33.57476 133.64524 2929 ft 157 kts 19°
2026-04-20 21:25 33.58215 133.65523 3399 ft 178 kts 64°
2026-04-20 21:25 33.58555 133.67034 3676 ft 199 kts 71°
2026-04-20 21:25 33.58989 133.68696 3925 ft 218 kts 65°
2026-04-20 21:26 33.59507 133.70505 4144 ft 243 kts 66°
2026-04-20 21:26 33.59972 133.72559 4437 ft 270 kts 80°
2026-04-20 21:26 33.59657 133.74842 4903 ft 288 kts 115°
2026-04-20 21:26 33.58489 133.76814 5509 ft 293 kts 131°
2026-04-20 21:27 33.57117 133.78647 6149 ft 298 kts 133°
2026-04-20 21:27 33.55736 133.80485 6792 ft 302 kts 133°
2026-04-20 21:27 33.54330 133.82389 7462 ft 307 kts 133°
2026-04-20 21:27 33.52925 133.84319 8206 ft 308 kts 132°
2026-04-20 21:28 33.51511 133.86277 8862 ft 312 kts 133°
2026-04-20 21:28 33.50088 133.88254 9497 ft 315 kts 133°
2026-04-20 21:28 33.48645 133.90256 10173 ft 317 kts 133°
2026-04-20 21:28 33.47201 133.92263 10558 ft 329 kts 133°
2026-04-20 21:29 33.45670 133.94385 10852 ft 344 kts 134°
2026-04-20 21:29 33.44071 133.96598 11134 ft 358 kts 133°
2026-04-20 21:29 33.42416 133.98893 11407 ft 370 kts 134°
2026-04-20 21:29 33.40724 134.01244 11842 ft 375 kts 134°
2026-04-20 21:30 33.39046 134.03660 12368 ft 379 kts 129°
2026-04-20 21:30 33.37768 134.06440 12845 ft 387 kts 112°
2026-04-20 21:30 33.37157 134.09609 13219 ft 396 kts 99°
2026-04-20 21:30 33.36795 134.12896 13669 ft 400 kts 98°
2026-04-20 21:31 33.36440 134.16217 14041 ft 406 kts 98°
2026-04-20 21:31 33.36072 134.19589 14395 ft 410 kts 98°
2026-04-20 21:31 33.35694 134.22997 14763 ft 415 kts 98°
2026-04-20 21:31 33.35309 134.26426 15185 ft 418 kts 98°
2026-04-20 21:32 33.34914 134.29896 15543 ft 423 kts 98°
2026-04-20 21:32 33.34512 134.33405 15905 ft 427 kts 98°
2026-04-20 21:32 33.34163 134.36901 16298 ft 431 kts 96°
2026-04-20 21:32 33.33954 134.40496 16669 ft 435 kts 93°
2026-04-20 21:33 33.33818 134.44131 17054 ft 439 kts 92°
2026-04-20 21:33 33.33700 134.47800 17397 ft 443 kts 92°
2026-04-20 21:33 33.33570 134.51501 17723 ft 448 kts 92°
2026-04-20 21:33 33.33420 134.55236 18078 ft 451 kts 93°
2026-04-20 21:34 33.33310 134.57724 18313 ft 453 kts 93°
2026-04-20 21:34 33.33070 134.62741 18782 ft 457 kts 94°
2026-04-20 21:34 33.32878 134.66542 19207 ft 459 kts 94°
2026-04-20 21:34 33.32760 134.70375 19548 ft 462 kts 88°
2026-04-20 21:35 33.32981 134.74211 19895 ft 464 kts 83°
2026-04-20 21:35 33.33334 134.78060 20219 ft 467 kts 82°
2026-04-20 21:35 33.33762 134.81922 20552 ft 470 kts 81°
2026-04-20 21:35 33.34227 134.85798 20902 ft 472 kts 80°
2026-04-20 21:36 33.34702 134.89687 21225 ft 474 kts 80°
2026-04-20 21:36 33.35178 134.93620 21515 ft 477 kts 80°
2026-04-20 21:36 33.35645 134.97556 21820 ft 479 kts 80°
2026-04-20 21:36 33.35953 135.00166 22026 ft 481 kts 81°
2026-04-20 21:37 33.36568 135.05486 22429 ft 484 kts 81°
2026-04-20 21:37 33.37018 135.09441 22714 ft 486 kts 81°
2026-04-20 21:37 33.37474 135.13464 22988 ft 488 kts 81°
2026-04-20 21:37 33.37928 135.17499 23265 ft 491 kts 81°
2026-04-20 21:38 33.38236 135.20233 23458 ft 492 kts 81°
2026-04-20 21:38 33.38690 135.24259 23714 ft 495 kts 81°
2026-04-20 21:38 33.39150 135.28350 23993 ft 496 kts 81°
2026-04-20 21:38 33.39611 135.32456 24244 ft 499 kts 81°
2026-04-20 21:39 33.40073 135.36586 24533 ft 501 kts 81°
2026-04-20 21:39 33.40536 135.40723 24785 ft 503 kts 81°
2026-04-20 21:39 33.40998 135.44885 25016 ft 506 kts 81°
2026-04-20 21:39 33.41463 135.49084 25296 ft 508 kts 81°
2026-04-20 21:40 33.41920 135.53235 25566 ft 510 kts 81°
2026-04-20 21:40 33.42385 135.57457 25822 ft 513 kts 81°
2026-04-20 21:40 33.42850 135.61701 26083 ft 514 kts 81°
2026-04-20 21:40 33.43315 135.65957 26349 ft 517 kts 81°
2026-04-20 21:41 33.43783 135.70239 26619 ft 519 kts 82°
2026-04-20 21:41 33.44249 135.74535 26907 ft 521 kts 82°
2026-04-20 21:41 33.44767 135.78839 27175 ft 523 kts 77°
2026-04-20 21:41 33.45495 135.83051 27466 ft 524 kts 76°
2026-04-20 21:42 33.46298 135.87330 27749 ft 527 kts 75°
2026-04-20 21:42 33.47139 135.91622 28012 ft 530 kts 75°
2026-04-20 21:42 33.47996 135.95928 28312 ft 532 kts 75°
2026-04-20 21:42 33.48855 136.00245 28623 ft 534 kts 75°
2026-04-20 21:43 33.49715 136.04587 28902 ft 537 kts 75°
2026-04-20 21:43 33.50572 136.08948 29263 ft 538 kts 75°
2026-04-20 21:43 33.51427 136.13324 29599 ft 541 kts 76°
2026-04-20 21:43 33.52288 136.17742 30052 ft 545 kts 76°
2026-04-20 21:44 33.53149 136.22177 30511 ft 548 kts 76°
2026-04-20 21:44 33.54015 136.26644 30944 ft 552 kts 76°
2026-04-20 21:44 33.54874 136.31091 31331 ft 556 kts 75°
2026-04-20 21:44 33.55747 136.35623 31733 ft 559 kts 75°
2026-04-20 21:45 33.56624 136.40185 32095 ft 563 kts 75°
2026-04-20 21:45 33.57506 136.44779 32449 ft 567 kts 75°
2026-04-20 21:45 33.58390 136.49392 32847 ft 569 kts 75°
2026-04-20 21:45 33.59278 136.54039 33166 ft 573 kts 75°
2026-04-20 21:46 33.60171 136.58721 33476 ft 576 kts 75°
2026-04-20 21:46 33.61054 136.63358 33835 ft 577 kts 75°
2026-04-20 21:46 33.61945 136.68046 34277 ft 576 kts 75°
2026-04-20 21:46 33.62834 136.72743 34697 ft 576 kts 75°
2026-04-20 21:47 33.63721 136.77434 35109 ft 576 kts 75°
2026-04-20 21:47 33.64608 136.82121 35517 ft 575 kts 74°
2026-04-20 21:47 33.65492 136.86809 35818 ft 577 kts 74°
2026-04-20 21:48 33.67255 136.96222 35889 ft 576 kts 74°
2026-04-20 21:48 33.68655 137.03729 35887 ft 575 kts 74°
2026-04-20 21:49 33.70398 137.13099 35888 ft 575 kts 74°
2026-04-20 21:49 33.72134 137.22473 35888 ft 575 kts 74°
2026-04-20 21:50 33.73868 137.31857 35888 ft 575 kts 74°
2026-04-20 21:50 33.75580 137.41162 35888 ft 574 kts 75°
2026-04-20 21:51 33.77295 137.50534 35888 ft 574 kts 75°
2026-04-20 21:51 33.79003 137.59913 35889 ft 574 kts 75°
2026-04-20 21:52 33.80703 137.69296 35888 ft 574 kts 75°
2026-04-20 21:52 33.82393 137.78672 35889 ft 574 kts 75°
2026-04-20 21:53 33.84078 137.88059 35888 ft 574 kts 75°
2026-04-20 21:53 33.85760 137.97460 35888 ft 574 kts 75°
2026-04-20 21:54 33.87424 138.06822 35888 ft 574 kts 75°
2026-04-20 21:54 33.89088 138.16231 35887 ft 574 kts 75°
2026-04-20 21:55 33.90825 138.25612 35881 ft 572 kts 70°
2026-04-20 21:55 33.92241 138.30060 35885 ft 565 kts 59°
2026-04-20 21:55 33.93957 138.34308 35866 ft 563 kts 58°
2026-04-20 21:56 33.97611 138.42636 35880 ft 561 kts 56°
2026-04-20 21:56 34.01336 138.50891 35880 ft 560 kts 56°
2026-04-20 21:57 34.05019 138.59118 35880 ft 562 kts 56°
2026-04-20 21:57 34.08719 138.67461 35880 ft 564 kts 56°
2026-04-20 21:58 34.12402 138.75817 35879 ft 564 kts 56°
2026-04-20 21:58 34.16085 138.84198 35880 ft 564 kts 56°
2026-04-20 21:59 34.19756 138.92574 35881 ft 564 kts 56°
2026-04-20 21:59 34.23406 139.00911 35875 ft 563 kts 56°
2026-04-20 21:59 34.25232 139.05092 35717 ft 558 kts 56°
2026-04-20 22:00 34.27018 139.09204 35676 ft 543 kts 56°
2026-04-20 22:00 34.28682 139.13301 35105 ft 544 kts 60°
2026-04-20 22:00 34.30219 139.17512 34248 ft 550 kts 62°
2026-04-20 22:00 34.31721 139.21782 33391 ft 554 kts 63°
2026-04-20 22:01 34.33188 139.26041 32537 ft 557 kts 63°
2026-04-20 22:01 34.34672 139.30388 31643 ft 559 kts 63°
2026-04-20 22:01 34.36153 139.34735 30717 ft 561 kts 63°
2026-04-20 22:01 34.37647 139.39114 29753 ft 563 kts 63°
2026-04-20 22:02 34.39137 139.43478 29067 ft 558 kts 63°
2026-04-20 22:02 34.40618 139.47806 28399 ft 554 kts 63°
2026-04-20 22:02 34.42085 139.52099 27733 ft 549 kts 63°
2026-04-20 22:02 34.43537 139.56351 27071 ft 544 kts 63°
2026-04-20 22:03 34.44981 139.60579 26413 ft 539 kts 63°
2026-04-20 22:03 34.46406 139.64760 25769 ft 534 kts 63°
2026-04-20 22:03 34.47995 139.68764 25135 ft 522 kts 53°
2026-04-20 22:03 34.50179 139.72167 24521 ft 502 kts 38°
2026-04-20 22:04 34.52861 139.74736 23926 ft 484 kts 26°
2026-04-20 22:04 34.55683 139.76880 23344 ft 475 kts 24°
2026-04-20 22:04 34.58491 139.78938 22770 ft 468 kts 24°
2026-04-20 22:04 34.61236 139.80950 22199 ft 464 kts 24°
2026-04-20 22:05 34.63977 139.82961 21632 ft 458 kts 24°
2026-04-20 22:05 34.66713 139.84929 21009 ft 451 kts 22°
2026-04-20 22:05 34.69560 139.86344 20411 ft 436 kts 10°
2026-04-20 22:05 34.72465 139.87334 19816 ft 431 kts
2026-04-20 22:06 34.75360 139.88264 19224 ft 427 kts
2026-04-20 22:06 34.78187 139.89173 18644 ft 423 kts
2026-04-20 22:06 34.81023 139.90090 18050 ft 420 kts
2026-04-20 22:06 34.83839 139.91005 17461 ft 417 kts
2026-04-20 22:07 34.86640 139.91924 16870 ft 415 kts 10°
2026-04-20 22:07 34.89352 139.93183 16233 ft 421 kts 24°
2026-04-20 22:07 34.91756 139.95257 15588 ft 425 kts 36°
2026-04-20 22:07 34.94009 139.97607 14930 ft 425 kts 38°
2026-04-20 22:08 34.96231 139.99968 14278 ft 423 kts 38°
2026-04-20 22:08 34.98416 140.02275 13638 ft 418 kts 38°
2026-04-20 22:08 35.00782 140.04270 13090 ft 407 kts 24°
2026-04-20 22:08 35.03344 140.05644 12597 ft 398 kts 18°
2026-04-20 22:09 35.05919 140.06874 12028 ft 395 kts 18°
2026-04-20 22:09 35.08465 140.08078 11450 ft 392 kts 18°
2026-04-20 22:09 35.10999 140.09286 10867 ft 389 kts 18°
2026-04-20 22:09 35.13479 140.10474 10640 ft 375 kts 18°
2026-04-20 22:10 35.15855 140.11622 10507 ft 359 kts 18°
2026-04-20 22:10 35.18128 140.12721 10374 ft 345 kts 18°
2026-04-20 22:10 35.20316 140.13775 10236 ft 330 kts 17°
2026-04-20 22:10 35.22390 140.14778 10109 ft 319 kts 17°
2026-04-20 22:11 35.24457 140.15774 9971 ft 319 kts 17°
2026-04-20 22:11 35.26526 140.16768 9678 ft 319 kts 17°
2026-04-20 22:11 35.28586 140.17760 9322 ft 317 kts 17°
2026-04-20 22:11 35.30644 140.18755 8993 ft 318 kts 18°
2026-04-20 22:12 35.32703 140.19761 8681 ft 317 kts 18°
2026-04-20 22:12 35.34761 140.20754 8364 ft 316 kts 18°
2026-04-20 22:12 35.36819 140.21680 8039 ft 313 kts 12°
2026-04-20 22:12 35.38917 140.21926 7806 ft 304 kts 352°
2026-04-20 22:13 35.41013 140.21736 7601 ft 302 kts 349°
2026-04-20 22:13 35.42869 140.21527 7419 ft 302 kts 349°
2026-04-20 22:13 35.44965 140.21291 7212 ft 301 kts 349°
2026-04-20 22:13 35.47047 140.21064 7025 ft 300 kts 349°
2026-04-20 22:14 35.49128 140.20845 6969 ft 300 kts 350°
2026-04-20 22:14 35.51215 140.20628 6966 ft 301 kts 350°
2026-04-20 22:14 35.53286 140.20341 6966 ft 296 kts 343°
2026-04-20 22:14 35.55242 140.19762 6861 ft 282 kts 338°
2026-04-20 22:15 35.57073 140.19121 6630 ft 265 kts 336°
2026-04-20 22:15 35.58607 140.18148 6290 ft 234 kts 308°
2026-04-20 22:15 35.59526 140.16658 6035 ft 209 kts 291°
2026-04-20 22:15 35.60210 140.15144 5795 ft 195 kts 288°
2026-04-20 22:16 35.60565 140.13624 5720 ft 179 kts 267°
2026-04-20 22:16 35.60598 140.12135 5654 ft 176 kts 261°
2026-04-20 22:16 35.60579 140.10636 5465 ft 175 kts 261°
2026-04-20 22:16 35.60558 140.09137 5255 ft 176 kts 261°
2026-04-20 22:17 35.60543 140.07640 5012 ft 175 kts 261°
2026-04-20 22:17 35.60534 140.06135 4779 ft 176 kts 260°
2026-04-20 22:17 35.60522 140.04628 4512 ft 176 kts 261°
2026-04-20 22:17 35.60514 140.03139 4294 ft 174 kts 261°
2026-04-20 22:18 35.60513 140.01697 4159 ft 165 kts 260°
2026-04-20 22:18 35.60506 140.00307 3938 ft 161 kts 259°
2026-04-20 22:18 35.60498 139.98938 3651 ft 160 kts 259°
2026-04-20 22:18 35.60487 139.97571 3354 ft 159 kts 259°
2026-04-20 22:19 35.60478 139.96235 3093 ft 154 kts 259°
2026-04-20 22:19 35.60472 139.94933 2974 ft 152 kts 258°
2026-04-20 22:19 35.60461 139.93616 2970 ft 156 kts 258°
2026-04-20 22:19 35.60452 139.92279 2949 ft 155 kts 258°
2026-04-20 22:20 35.60454 139.90976 2773 ft 150 kts 259°
2026-04-20 22:20 35.60483 139.89743 2558 ft 143 kts 261°
2026-04-20 22:20 35.60526 139.88523 2296 ft 143 kts 261°
2026-04-20 22:20 35.60532 139.87296 2013 ft 145 kts 262°
2026-04-20 22:21 35.60516 139.86059 1708 ft 145 kts 260°
2026-04-20 22:21 35.60476 139.84835 1431 ft 141 kts 260°
2026-04-20 22:21 35.60421 139.83627 1301 ft 142 kts 259°
2026-04-20 22:21 35.60316 139.82409 1086 ft 143 kts 253°
2026-04-20 22:22 35.59979 139.81303 942 ft 139 kts 236°
2026-04-20 22:22 35.59439 139.80319 784 ft 138 kts 227°
2026-04-20 22:22 35.58762 139.79503 591 ft 136 kts 213°
2026-04-20 22:22 35.58003 139.78812 383 ft 136 kts 214°
2026-04-20 22:23 35.57241 139.78132 181 ft 135 kts 212°
2026-04-20 22:23 35.56725 139.77690 67 ft 136 kts 214°
2026-04-20 22:23 35.55795 139.76894 33 ft 87 kts 215°
2026-04-20 22:23 35.55476 139.76620 32 ft 37 kts 215°
2026-04-20 22:24 35.55283 139.76486 31 ft 28 kts 197°
2026-04-20 22:24 35.55146 139.76454 31 ft 18 kts 190°
2026-04-20 22:24 35.55073 139.76490 31 ft 12 kts 121°
2026-04-20 22:24 35.55093 139.76587 31 ft 13 kts 60°
2026-04-20 22:25 35.55146 139.76699 30 ft 17 kts 60°
2026-04-20 22:25 35.55208 139.76832 28 ft 18 kts 60°
2026-04-20 22:25 35.55263 139.76946 27 ft 13 kts 59°
2026-04-20 22:25 35.55329 139.76994 28 ft 13 kts 353°
2026-04-20 22:26 35.55415 139.76938 29 ft 15 kts 330°
2026-04-20 22:26 35.55489 139.76911 31 ft 11 kts
2026-04-20 22:26 35.55541 139.76946 30 ft 13 kts 35°
2026-04-20 22:27 35.55752 139.77127 31 ft 15 kts 35°
2026-04-20 22:27 35.55806 139.77173 29 ft 10 kts 35°
2026-04-20 22:27 35.55832 139.77255 29 ft 12 kts 107°
2026-04-20 22:27 35.55767 139.77326 28 ft 12 kts 149°
2026-04-20 22:28 35.55688 139.77383 28 ft 13 kts 149°
2026-04-20 22:28 35.55604 139.77442 28 ft 13 kts 150°
2026-04-20 22:28 35.55520 139.77501 29 ft 14 kts 150°
2026-04-20 22:28 35.55429 139.77566 29 ft 16 kts 150°
2026-04-20 22:29 35.55337 139.77631 28 ft 14 kts 150°
2026-04-20 22:29 35.55246 139.77695 29 ft 16 kts 149°
2026-04-20 22:29 35.55141 139.77770 28 ft 17 kts 150°
2026-04-20 22:29 35.55043 139.77840 28 ft 15 kts 150°
2026-04-20 22:30 35.54954 139.77903 28 ft 12 kts 150°
2026-04-20 22:30 35.54913 139.77958 28 ft 9 kts 100°
2026-04-20 22:30 35.54939 139.78020 28 ft 7 kts 54°
2026-04-20 22:30 35.54974 139.78082 28 ft 7 kts 58°
2026-04-20 22:31 35.54998 139.78134 29 ft 6 kts 60°
2026-04-20 22:31 35.55016 139.78172 29 ft 3 kts 60°
2026-04-20 22:31 35.55022 139.78186 29 ft 0 kts 60°